Home > Weather > Barrie > Past weeks

Flag for Canada Weather for the Past 2 Weeks in Barrie, Ontario, Canada

Now
21 °F

Light snow. Overcast.


Feels Like: 12 °F
Forecast: 11 / 25 °F
Wind: 8 mph from Northwest

Location: Borden

Current Time: Feb 10, 2016 at 1:15:38 PM

Latest Report: Feb 10, 2016 at 12:00 PM


Visibility: 5 mi

Pressure: 29.68 "Hg

Humidity: 74%

Dew point: 14 °F

Location of BarrieLocation

Historic Weather in Barrie — Graph

°F

Barrie Temperature Yesterday

Maximum temperature yesterday: 28 °F (at 12:00 AM)
Minimum temperature yesterday: 23 °F (at 5:03 AM)
Average temperature yesterday: 26 °F

High & Low Weather Summary for the Past Weeks

 TemperatureHumidityPressure
High57 °F (Feb 3, 3:00 PM)100% (Jan 31, 6:00 PM)30.35 "Hg (Jan 31, 6:00 PM)
Low5 °F (Jan 29, 11:00 PM)48% (Feb 5, 2:00 PM)29.40 "Hg (Jan 31, 9:57 PM)
Average31 °F80%29.84 "Hg
* Reported Jan 26 12:00 Noon — Feb 10 12:00 Noon, Barrie, Weather by CustomWeather, © 2016

Note: Actual official high and low records may vary slightly from our data, if they occured in-between our weather recording intervals... More about our weather records

Advertising

Barrie Weather History for the Previous 24 Hours

 ConditionsComfort  
Time TempWeatherWind HumidityBarometerVisibility
12:00 PM
Wed, Feb 10
21 °FLight snow. Overcast.8 mph74%29.68 "Hg5 mi
11:00 AM19 °FLight snow. Mostly cloudy.10 mph79%29.67 "Hg2 mi
10:53 AM19 °FLight snow. Overcast.14 mph79%29.63 "Hg2 mi
10:03 AM21 °FOvercast.13 mph80%29.62 "Hg9 mi
10:00 AM21 °FOvercast.13 mph80%29.65 "Hg9 mi
9:57 AM21 °FOvercast.13 mph80%29.62 "Hg9 mi
9:03 AM21 °FLight snow. Overcast.8 mph86%29.60 "Hg3 mi
8:00 AM21 °FLight snow. Overcast.6 mph93%29.62 "Hg3 mi
7:55 AM21 °FLight snow. Overcast.6 mph93%29.59 "Hg3 mi
7:00 AM21 °FLight snow. Low clouds.3 mph93%29.61 "Hg5 mi
6:00 AM23 °FLight snow. Low clouds.7 mph93%29.58 "Hg2 mi
5:00 AM23 °FLight snow. Low clouds.6 mph93%29.56 "Hg2 mi
4:55 AM23 °FLight snow. Low clouds.5 mph93%29.53 "Hg2 mi
4:00 AM23 °FLight snow. Low clouds.7 mph93%29.55 "Hg4 mi
3:00 AM25 °FLight snow. Overcast.5 mph86%29.54 "Hg3 mi
2:52 AM25 °FLight snow. Overcast.5 mph86%29.50 "Hg3 mi
2:03 AM25 °FLight snow. Overcast.5 mph93%29.49 "Hg4 mi
1:04 AM27 °FLight snow. Mostly cloudy.5 mph93%29.48 "Hg3 mi
12:03 AM27 °FLight snow. Low clouds.5 mph93%29.48 "Hg4 mi
11:00 PM
Tue, Feb 9
27 °FLight snow. Low clouds.6 mph93%29.51 "Hg6 mi
10:50 PM27 °FLight snow. Low clouds.5 mph93%29.48 "Hg7 mi
10:00 PM28 °FLow clouds.3 mph93%29.52 "Hg6 mi
9:00 PM28 °FLow clouds.No wind93%29.52 "Hg6 mi
8:00 PM28 °FLow clouds.No wind93%29.53 "Hg8 mi
7:00 PM28 °FMostly cloudy.2 mph93%29.53 "Hg9 mi
6:00 PM28 °FLow clouds.5 mph93%29.52 "Hg9 mi
5:00 PM28 °FLow clouds.3 mph93%29.50 "Hg9 mi
4:00 PM28 °FLow clouds.5 mph86%29.49 "Hg9 mi
3:00 PM28 °FLow clouds.3 mph86%29.49 "Hg9 mi
2:00 PM27 °FLow clouds.3 mph93%29.49 "Hg9 mi
1:00 PM27 °FLow clouds.5 mph86%29.51 "Hg9 mi
Weather by CustomWeather, © 2016

See weather overviewHow to use our weather pages